| time (UTC) | temp C | wind direction | speed KPH | gust KPH | rain 1hr cm | rain 24hr cm | rain mn cm | humidity % | barometer mb |
| 20260903043045 | 21 | 251 | 0.0 | 1.6 | 0.03 | 0.36 | 0.03 | 98 | 1017.3 |
| 20260903041543 | 21 | 106 | 0.0 | 0.0 | 0.03 | 0.36 | 0.03 | 98 | 1017.5 |
| 20260903040041 | 21 | 112 | 0.0 | 0.0 | 0.00 | 0.33 | 0.00 | 98 | 1017.7 |
| 20260903034540 | 21 | 112 | 0.0 | 0.0 | 0.00 | 0.33 | 0.33 | 98 | 1017.5 |
| 20260903033040 | 21 | 112 | 0.0 | 0.0 | 0.00 | 0.33 | 0.33 | 98 | 1018.0 |
| 20260903031539 | 21 | 112 | 0.0 | 0.0 | 0.00 | 0.33 | 0.33 | 98 | 1018.0 |
| 20260903030043 | 21 | 112 | 0.0 | 0.0 | 0.00 | 0.33 | 0.33 | 98 | 1017.4 |
| 20260903024543 | 21 | 112 | 0.0 | 0.0 | 0.00 | 0.33 | 0.33 | 98 | 1017.7 |
| 20260903023038 | 21 | 112 | 0.0 | 0.0 | 0.00 | 0.33 | 0.33 | 98 | 1017.9 |
| 20260903021538 | 21 | 110 | 0.0 | 0.0 | 0.00 | 0.33 | 0.33 | 98 | 1017.9 |
| 20260903020036 | 21 | 110 | 0.0 | 1.6 | 0.00 | 0.33 | 0.33 | 98 | 1017.5 |
| 20260903014538 | 21 | 342 | 0.0 | 1.6 | 0.00 | 0.33 | 0.33 | 98 | 1017.5 |
| 20260903013036 | 21 | 51 | 0.0 | 1.6 | 0.00 | 0.33 | 0.33 | 98 | 1017.5 |
| 20260903011541 | 21 | 113 | 0.0 | 0.0 | 0.00 | 0.33 | 0.33 | 98 | 1017.5 |
| 20260903010035 | 21 | 112 | 0.0 | 0.0 | 0.00 | 0.33 | 0.33 | 98 | 1017.7 |
| 20260903004534 | 21 | 115 | 0.0 | 0.0 | 0.00 | 0.36 | 0.33 | 98 | 1017.7 |
| 20260903003035 | 21 | 121 | 0.0 | 0.0 | 0.00 | 0.36 | 0.33 | 98 | 1017.7 |
| 20260903001533 | 21 | 121 | 0.0 | 3.2 | 0.00 | 0.36 | 0.33 | 98 | 1017.5 |
| 20260903000033 | 21 | 295 | 0.0 | 6.4 | 0.00 | 0.36 | 0.33 | 98 | 1017.3 |
| 20260902234532 | 21 | 133 | 0.0 | 1.6 | 0.00 | 1.57 | 0.33 | 97 | 1017.0 |
| 20260902233037 | 21 | 258 | 0.0 | 1.6 | 0.00 | 1.57 | 0.33 | 97 | 1017.2 |
| 20260902231536 | 21 | 98 | 0.0 | 4.8 | 0.00 | 1.57 | 0.33 | 97 | 1017.3 |
| 20260902230031 | 21 | 110 | 0.0 | 3.2 | 0.00 | 1.57 | 0.33 | 97 | 1017.4 |
| 20260902224530 | 21 | 202 | 0.0 | 4.8 | 0.00 | 1.57 | 0.33 | 97 | 1017.5 |
| 20260902223031 | 21 | 220 | 0.0 | 0.0 | 0.00 | 1.57 | 0.33 | 97 | 1017.6 |
| 20260902221529 | 21 | 182 | 0.0 | 3.2 | 0.00 | 1.57 | 0.33 | 97 | 1017.7 |
| 20260902220031 | 22 | 322 | 0.0 | 1.6 | 0.00 | 1.57 | 0.33 | 97 | 1017.8 |
| 20260902214529 | 22 | 118 | 0.0 | 3.2 | 0.00 | 1.57 | 0.33 | 97 | 1018.0 |
| 20260902213028 | 22 | 293 | 0.0 | 1.6 | 0.00 | 1.57 | 0.33 | 96 | 1018.0 |
| 20260902211527 | 22 | 275 | 0.0 | 1.6 | 0.00 | 1.57 | 0.33 | 97 | 1017.7 |
| 20260902210033 | 22 | 115 | 0.0 | 3.2 | 0.00 | 1.57 | 0.33 | 96 | 1017.5 |
| 20260902204537 | 22 | 138 | 0.0 | 3.2 | 0.00 | 1.57 | 0.33 | 97 | 1017.1 |
| 20260902203026 | 22 | 77 | 0.0 | 1.6 | 0.00 | 1.57 | 0.33 | 96 | 1017.4 |
| 20260902201530 | 22 | 77 | 0.0 | 0.0 | 0.00 | 1.57 | 0.33 | 97 | 1017.7 |
| 20260902200025 | 22 | 77 | 0.0 | 1.6 | 0.00 | 1.57 | 0.33 | 97 | 1018.1 |
| 20260902194523 | 22 | 350 | 0.0 | 4.8 | 0.00 | 1.57 | 0.33 | 97 | 1018.0 |
| 20260902193024 | 22 | 244 | 0.0 | 1.6 | 0.03 | 1.57 | 0.33 | 97 | 1017.5 |
| 20260902191523 | 22 | 275 | 0.0 | 1.6 | 0.03 | 1.57 | 0.33 | 97 | 1017.8 |
| 20260902190022 | 22 | 200 | 0.0 | 4.8 | 0.03 | 1.57 | 0.33 | 97 | 1017.7 |
| 20260902184522 | 22 | 226 | 0.0 | 0.0 | 0.05 | 1.57 | 0.33 | 98 | 1017.9 |
| 20260902183020 | 21 | 228 | 0.0 | 0.0 | 0.08 | 1.55 | 0.30 | 98 | 1018.4 |
| 20260902181520 | 21 | 228 | 0.0 | 0.0 | 0.15 | 1.55 | 0.30 | 98 | 1018.7 |
| 20260902180019 | 21 | 228 | 0.0 | 0.0 | 0.23 | 1.55 | 0.30 | 98 | 1018.7 |
| 20260902174517 | 21 | 228 | 0.0 | 1.6 | 0.20 | 1.52 | 0.28 | 97 | 1019.3 |
| 20260902173016 | 21 | 227 | 0.0 | 1.6 | 0.15 | 1.45 | 0.23 | 97 | 1019.0 |
| 20260902171515 | 21 | 220 | 0.0 | 1.6 | 0.08 | 1.40 | 0.15 | 97 | 1019.0 |
| 20260902170014 | 21 | 96 | 0.0 | 0.0 | 0.00 | 1.32 | 0.08 | 97 | 1019.5 |
| 20260902164518 | 21 | 96 | 0.0 | 0.0 | 0.00 | 1.32 | 0.08 | 97 | 1020.0 |
| 20260902163011 | 21 | 119 | 0.0 | 3.2 | 0.00 | 1.32 | 0.08 | 97 | 1019.7 |
| 20260902161511 | 21 | 92 | 0.0 | 1.6 | 0.00 | 1.32 | 0.08 | 97 | 1019.6 |
| 20260902160010 | 21 | 220 | 0.0 | 0.0 | 0.00 | 1.32 | 0.08 | 98 | 1019.7 |
| 20260902154512 | 21 | 111 | 0.0 | 3.2 | 0.00 | 1.32 | 0.08 | 98 | 1019.1 |
| 20260902153008 | 21 | 150 | 0.0 | 4.8 | 0.00 | 1.32 | 0.08 | 98 | 1019.0 |
| 20260902151508 | 21 | 101 | 0.0 | 4.8 | 0.00 | 1.32 | 0.08 | 98 | 1019.2 |
| 20260902150007 | 21 | 49 | 0.0 | 1.6 | 0.00 | 1.32 | 0.08 | 98 | 1019.2 |
| 20260902144506 | 21 | 11 | 0.0 | 1.6 | 0.00 | 1.32 | 0.08 | 98 | 1019.5 |
| 20260902143006 | 20 | 110 | 0.0 | 4.8 | 0.00 | 1.32 | 0.08 | 98 | 1019.4 |
| 20260902141515 | 20 | 32 | 0.0 | 1.6 | 0.00 | 1.32 | 0.08 | 98 | 1019.6 |
| 20260902140002 | 20 | 88 | 0.0 | 3.2 | 0.00 | 1.32 | 0.08 | 98 | 1019.3 |
| 20260902134502 | 20 | 268 | 0.0 | 3.2 | 0.00 | 1.35 | 0.08 | 98 | 1019.0 |
| 20260902133002 | 20 | 150 | 0.0 | 6.4 | 0.03 | 1.35 | 0.08 | 98 | 1019.0 |
| 20260902131559 | 20 | 309 | 0.0 | 1.6 | 0.03 | 1.35 | 0.08 | 98 | 1018.9 |
| 20260902130058 | 20 | 111 | 0.0 | 3.2 | 0.03 | 1.35 | 0.08 | 98 | 1018.5 |
| 20260902124605 | 20 | 108 | 0.0 | 3.2 | 0.03 | 1.35 | 0.08 | 98 | 1018.6 |
| 20260902123056 | 20 | 144 | 0.0 | 3.2 | 0.00 | 1.32 | 0.05 | 98 | 1018.6 |
| 20260902121602 | 20 | 24 | 0.0 | 1.6 | 0.03 | 1.32 | 0.05 | 98 | 1018.6 |
| 20260902120052 | 20 | 284 | 0.0 | 1.6 | 0.03 | 1.32 | 0.05 | 98 | 1018.4 |
| 20260902114552 | 20 | 283 | 0.0 | 1.6 | 0.03 | 1.32 | 0.05 | 98 | 1018.5 |
| 20260902113050 | 20 | 300 | 0.0 | 1.6 | 0.03 | 1.32 | 0.05 | 98 | 1018.1 |
| 20260902111549 | 20 | 142 | 0.0 | 1.6 | 0.00 | 1.30 | 0.03 | 98 | 1018.2 |
| 20260902110049 | 20 | 242 | 0.0 | 0.0 | 0.00 | 1.30 | 0.03 | 98 | 1018.3 |
| 20260902104551 | 20 | 242 | 0.0 | 3.2 | 0.00 | 1.30 | 0.03 | 98 | 1018.3 |
| 20260902103047 | 20 | 155 | 0.0 | 0.0 | 0.00 | 1.30 | 0.03 | 98 | 1018.2 |
| 20260902101552 | 20 | 130 | 0.0 | 3.2 | 0.00 | 1.30 | 0.03 | 98 | 1017.9 |
| 20260902100044 | 20 | 111 | 0.0 | 4.8 | 0.00 | 1.30 | 0.03 | 98 | 1017.8 |
| 20260902094543 | 21 | 342 | 0.0 | 3.2 | 0.00 | 1.30 | 0.03 | 98 | 1017.7 |
| 20260902093055 | 21 | 329 | 0.0 | 1.6 | 0.03 | 1.30 | 0.03 | 98 | 1017.6 |
| 20260902091550 | 21 | 310 | 0.0 | 3.2 | 0.03 | 1.30 | 0.03 | 98 | 1017.7 |
| 20260902090045 | 21 | 290 | 0.0 | 1.6 | 0.03 | 1.30 | 0.03 | 98 | 1017.5 |
| 20260902084549 | 21 | 178 | 0.0 | 0.0 | 0.03 | 1.30 | 0.03 | 98 | 1017.4 |
| 20260902083047 | 21 | 118 | 0.0 | 0.0 | 0.00 | 1.27 | 0.00 | 98 | 1017.3 |
| 20260902081535 | 21 | 126 | 0.0 | 3.2 | 0.00 | 1.27 | 0.00 | 98 | 1016.9 |
| 20260902080035 | 21 | 257 | 0.0 | 1.6 | 0.00 | 1.27 | 0.00 | 98 | 1016.9 |
| 20260902074534 | 21 | 269 | 0.0 | 1.6 | 0.00 | 1.27 | 0.00 | 98 | 1016.8 |
| 20260902073035 | 20 | 267 | 0.0 | 0.0 | 0.00 | 1.27 | 0.00 | 98 | 1016.9 |
| 20260902071537 | 20 | 267 | 0.0 | 0.0 | 0.00 | 1.27 | 0.00 | 98 | 1016.7 |
| 20260902070033 | 20 | 266 | 0.0 | 0.0 | 0.00 | 1.27 | 0.00 | 98 | 1016.7 |
| 20260902064533 | 20 | 266 | 0.0 | 0.0 | 0.00 | 1.27 | 0.00 | 98 | 1016.8 |
| 20260902063033 | 20 | 267 | 0.0 | 0.0 | 0.00 | 1.27 | 0.00 | 98 | 1016.6 |
| 20260902061543 | 20 | 266 | 0.0 | 0.0 | 0.00 | 1.27 | 0.00 | 98 | 1016.5 |
| 20260902060030 | 20 | 267 | 0.0 | 0.0 | 0.00 | 1.27 | 0.00 | 98 | 1016.7 |
| 20260902054534 | 20 | 267 | 0.0 | 0.0 | 0.00 | 1.27 | 0.00 | 98 | 1016.8 |
| 20260902053030 | 20 | 267 | 0.0 | 1.6 | 0.00 | 1.27 | 0.00 | 98 | 1016.7 |
| 20260902051526 | 20 | 34 | 0.0 | 1.6 | 0.00 | 1.27 | 0.00 | 98 | 1016.4 |
| 20260902050026 | 21 | 34 | 0.0 | 0.0 | 0.00 | 1.27 | 0.00 | 98 | 1016.6 |
| 20260902044524 | 21 | 34 | 0.0 | 0.0 | 0.00 | 1.30 | 0.00 | 98 | 1017.1 |